Weather in Pasig

Philippines     14°33′39″N   121°04′54″E
temp.,
°C
wind,
m/s
gust,
m/s
humid.,
%
clouds,
%
prec.,
mm/h
press.,
hPa
HPBL,
m
17 april, sat
sat1723:00+28ese4471100 0.0 1012484
02:00+27e347498 0.0 1010368
05:00+27ene227595 0.0 1010405
08:00+28e2270100 0.0 1012583
11:00+30wsw2355100 0.0 1011810
14:00+33sw2243100 0.0 10081013
17:00+32se7845100 0.0 1007627
20:00+29sse5561100 0.0 1010599
18 april, sun
sun1823:00+28e2264100 0.0 1011474
02:00+27ese2269100 0.0 1008395
05:00+27se3371100 0.0 1009421
08:00+28e226798 0.0 1011616
11:00+31sw2354100 0.0 10091042
14:00+31sw2250100 0.0 1005749
17:00+32s3448100 0.0 1004538
20:00+29sse3463100 0.3 1007531
19 april, mon
mon1923:00+28se2367100 0.1 1008418
02:00+27ssw1167100 1.0 1006215
05:00+27wsw1168100 0.0 1006348
08:00+28n2365100 0.0 1007816
11:00+30w3354100 0.0 1007811
14:00+31wsw7753100 0.0 1003782
17:00+29wsw8965100 0.4 1004631
20:00+28nw1272100 4.0 1006330
20 april, tue
tue2023:00+27s0176100 2.9 100691
02:00+27s1175100 3.9 1004157
05:00+27nnw1177100 0.6 1005111
08:00+27nw2371100 0.7 1006599
11:00+29wnw2258100 0.0 1006712
14:00+30w5556100 0.0 1003631
17:00+29wsw8966100 0.0 1003574
20:00+28wsw5673100 0.7 1006597
21 april, wed
wed2123:00+28wnw2374100 2.1 1006330
02:00+28n2375100 2.3 1004409
05:00+27n2277100 0.0 1005427
08:00+28wsw2374100 0.0 1006611
11:00+29w4568100 0.1 1006809
14:00+30wsw7764100 0.1 1004714
17:00+29wsw8869100 0.0 1002660
20:00+29wsw2372100 0.0 1004340